Location: St Paul
(33.4390°N, 83.7350°W)
Time: 15:16:27
(UTC-04:00)

FENGYUN 3A - Pass Details

Date: 06 October 2017
Orbit: 820 x 832 km, 98.4° (Epoch: 22 October)

Event Time Altitude Azimuth Distance (km) Brightness Sun altitude
Rises 19:53:35 0° 155° (SSE) 3,340 6.6 -9.4°
Reaches altitude 10° 19:55:57 10° 151° (SSE) 2,413 5.8 -9.9°
Maximum altitude 20:01:10 57° 74° (ENE) 966 3.7 -11.0°
Drops below altitude 10° 20:06:26 10° 357° (N) 2,434 6.2 -12.1°
Sets 20:08:50 0° 353° (N) 3,372 6.9 -12.6°
